Location: Dompnac
(44.5644°N, 4.1026°E)
Time: 18:57:06
(UTC+00:00)

Cosmos 1634 Rocket - Pass Details

Date: 18 January 2021
Orbit: 961 x 991 km, 82.9° (Epoch: 05 March)

Event Time Altitude Azimuth Distance (km) Brightness Sun altitude
Rises 17:18:04 0° 352° (N) 3,673 6.9 -8.0°
Reaches altitude 10° 17:20:34 10° 353° (N) 2,726 6.2 -8.4°
Maximum altitude 17:26:51 84° 83° (E) 988 4.0 -9.5°
Drops below altitude 10° 17:33:07 10° 171° (S) 2,729 6.5 -10.6°
Sets 17:35:38 0° 172° (S) 3,677 7.2 -11.0°
